SCP
0 0 0 0 0 0 0 0 0 0 0 0 0 -0 -0 0 0 0 0 0 0 0 0 0 0 0 0 0 -0 0 0 0 0 0 0 0 0 0 0 -0 -0 0 -0 0
0 0 0 0 0 0 0 0 0 0 0 0 0 0 -0 0 0 0 0 0 0 0 0 0 0 0 0 0 0 -0 0 0 0 0 0 -0 0 0 0 0 0 0 0 0
0 0 0 0 0 0 0 0 0 0 0 -0 0 0 0 0 0 0 0 0 0 0 0 0 0 0 0 0 0 0 0 0 0 0 0 0 0 0 0 0 0 0 -0 0
0 0 0 0 0 0 0 0 0 0 0 0 0 0 0 0 0 0 0 0 0 0 0 0 0 0 0 0 0 0 0 0 0 0 0 0 0 0 0 0 0 0 0 0
0 0 0 0 0 -0 0 0 0 0 -0 0 0 0 0 0 0 0 0 0 0 0 0 0 0 0 0 0 0 0 0 0 0 0 0 0 0 0 0 0 0 -0 0 0
0 0 0 0 0 0 0 0 0 0 0 -0 0 0 0 0 0 0 0 0 0 0 0 0 0 0 0 0 0 0 0 0 0 0 0 0 -0 -0 -0 0 0 0 0 0
0 0 0 0 0 0 -0 0 0 0 0 0 0 0 0 0 0 0 0 0 0 0 0 0 0 0 0 0 0 0 0 0 0 0 0 0 0 0 0 0 0 0 0 0
0 0 0 0 0 0 -0 0 0 0 0 0 0 0 0 0 0 0 0 0 0 0 0 0 0 0 0 0 0 0 0 0 0 0 0 0 0 0 0 0 0 0 0 0
0 0 0 0 0 0 -0 0 0 0 0 0 0 0 0 0 0 0 0 0 0 0 0 0 0 0 0 0 0 0 0 0 0 0 0 0 0 0 0 0 0 0 0 0
0 0 0 0 0 0 0 0 0 0 0 0 0 0 0 0 0 0 0 0 0 0 0 0 0 0 0 0 0 0 0 0 0 0 0 0 0 0 -0 0 0 0 0 0
0 0 0 0 0 0 0 0 0 0 0 0 0 0 0 0 0 0 0 0 0 0 0 0 0 0 0 0 0 0 0 0 0 0 0 0 0 -0 0 0 0 0 0 0
0 0 0 0 0 0 0 0 0 0 0 0 0 -0 -0 -0 -0 0 0 0 0 0 0 0 0 0 0 0 0 0 0 0 0 0 0 0 0 0 0 0 0 0 0 0
0 0 0 0 0 0 0 0 0 0 0 0 0 0 -0 0 0 -0 0 0 0 0 0 0 0 0 0 0 0 0 0 0 0 0 0 0 0 0 0 0 0 0 0 0
0 0 0 0 0 0 0 0 0 0 0 0 0 0 -0 0 0 0 -0 0 0 0 0 0 0 0 0 0 0 0 0 0 0 0 0 0 0 0 0 0 0 0 0 0
0 0 0 0 0 0 0 0 0 0 0 0 0 -0 0 -0 0 -0 0 0 0 0 0 0 0 0 0 0 0 0 0 0 0 0 0 0 0 0 0 0 0 0 0 1
0 0 0 0 0 0 0 0 0 0 0 0 0 0 0 0 0 0 0 0 0 0 0 0 0 0 0 0 0 0 0 0 0 0 0 0 0 0 0 0 0 0 1 1
0 0 0 0 0 0 0 0 0 0 0 0 0 0 0 0 0 0 0 0 0 0 0 0 0 0 0 0 0 0 0 0 0 0 0 0 0 0 0 0 1 2 2 2
0 0 0 0 0 0 0 0 0 0 0 0 0 0 -0 0 0 0 0 0 0 0 0 0 0 0 0 0 0 0 0 0 0 0 0 0 0 1 1 2 2 2 1 1
0 0 0 0 0 0 0 0 -0 0 0 0 0 0 0 0 0 0 0 0 0 0 0 0 0 0 0 0 0 0 0 0 0 0 0 0 1 1 1 1 1 1 1 1
0 0 0 0 0 0 0 0 0 0 0 0 0 -0 -0 0 0 0 0 0 0 0 0 0 0 0 0 0 0 0 0 0 0 0 0 0 1 0 0 0 0 0 0 0
0 0 0 0 -0 0 0 0 0 0 0 0 0 -0 -0 0 0 0 0 0 0 0 0 0 0 0 0 0 0 0 0 0 0 0 0 0 0 1 1 1 0 0 0 0
0 0 0 0 0 0 0 -0 0 0 -0 0 -0 0 0 0 0 0 0 0 0 0 0 0 0 0 0 0 0 0 0 0 0 0 0 0 0 0 0 1 1 1 1 1
0 0 0 0 0 0 0 0 0 -0 -0 -0 -0 -0 -0 -0 0 0 0 0 -0 0 0 0 0 1 0 0 0 0 0 0 0 0 0 0 0 0 0 0 0 0 1 1
0 0 0 0 0 0 0 0 0 -0 -0 -0 -0 0 0 0 -0 0 0 0 0 0 0 0 0 0 1 2 1 0 0 0 0 0 0 0 1 0 1 0 1 0 0 1
0 0 0 0 0 0 0 0 -0 -0 -0 0 -0 -0 -0 -0 0 0 0 0 -0 0 0 0 0 0 1 1 1 1 0 0 0 0 0 0 0 0 0 0 0 0 1 1
0 0 0 0 0 0 -0 -0 0 -0 -0 -0 -0 -0 -0 0 0 0 0 0 0 -0 0 0 0 0 1 1 1 1 2 2 1 1 1 1 1 0 0 0 0 0 0 0
0 0 0 0 0 0 0 0 0 -0 0 -0 0 0 -0 0 0 -0 -0 -0 0 -0 -0 0 0 0 1 1 2 3 3 4 2 1 1 1 0 0 0 0 0 0 0 0
Wind_Speed_500mb
57 58 60 64 73 68 40 13 9 3 15 19 27 25 33 21 28 27 26 21 27 17 15 24 31 26 48 51 54 62 58 37 29 43 36 40 45 36 40 21 32 5 16 21
56 57 58 59 62 66 57 20 15 6 13 13 16 23 29 22 29 35 34 34 29 26 18 12 23 24 26 54 49 55 49 44 25 41 62 50 47 44 38 40 14 20 9 14
54 55 55 55 54 49 35 18 8 16 22 35 22 24 23 29 25 24 36 29 32 31 29 26 15 21 21 12 29 19 44 48 45 25 42 34 46 38 43 40 28 18 22 28
50 52 53 53 54 36 25 11 12 10 13 11 14 24 29 31 24 13 14 19 32 35 32 34 32 30 28 18 30 28 36 47 51 45 29 34 42 47 53 40 41 38 31 23
45 48 51 53 54 38 13 21 14 27 41 38 27 23 26 29 29 6 33 24 29 14 28 28 29 21 31 26 38 37 39 41 47 46 33 47 42 45 49 53 49 48 41 19
42 44 47 48 48 42 18 26 16 19 28 25 17 14 19 17 22 28 36 22 15 17 16 28 42 39 42 32 24 20 44 35 40 39 56 44 60 62 47 41 47 51 39 41
39 40 42 43 42 37 19 22 19 18 19 20 23 30 27 26 27 31 44 30 19 29 32 41 41 49 47 41 35 33 29 35 36 32 35 43 36 46 41 44 40 44 48 39
36 36 37 39 38 34 20 21 15 13 17 31 33 19 22 32 27 29 39 45 44 37 32 22 29 29 37 46 42 35 30 23 27 27 34 37 49 31 38 41 44 45 43 38
37 35 35 34 34 32 22 14 11 13 20 2 33 30 32 22 23 25 36 34 20 27 20 21 31 29 32 37 42 40 37 29 24 23 31 31 34 16 22 22 26 31 38 39
34 32 32 33 31 32 26 16 15 10 20 30 31 31 35 35 26 20 23 21 22 29 21 23 27 31 39 37 46 34 36 31 31 28 23 34 7 17 32 21 5 21 39 38
31 30 31 32 31 28 28 23 25 23 17 66 37 15 25 28 32 22 26 19 25 14 20 23 22 25 31 39 40 49 37 35 25 29 34 32 19 35 31 15 21 23 35 11
34 35 31 32 31 27 29 33 13 27 45 57 76 77 73 73 66 48 35 38 23 13 11 9 12 22 26 31 26 35 39 35 29 29 32 30 7 17 16 11 9 8 11 5
33 35 33 36 31 26 29 39 39 35 36 53 41 46 36 38 39 64 49 37 34 35 24 14 10 10 13 17 27 29 26 30 26 39 19 8 15 11 4 4 9 7 5 4
33 36 34 33 35 35 36 40 42 31 19 10 20 16 31 13 22 30 51 62 34 24 20 23 15 13 10 21 28 23 15 29 21 24 8 10 9 8 6 6 6 6 4 8
34 34 36 36 38 36 42 52 45 41 29 9 35 63 16 20 35 43 36 42 50 41 26 17 18 25 25 21 25 22 23 14 23 23 21 26 24 10 5 11 18 13 11 16
36 37 36 35 36 36 38 15 3 17 35 8 8 21 30 13 11 18 37 38 40 43 37 20 29 46 16 14 22 31 46 27 21 4 9 13 13 17 18 21 23 21 21 28
39 39 38 38 40 37 25 14 5 7 18 8 10 12 5 14 9 11 22 31 33 39 43 37 37 33 33 21 25 30 32 13 8 22 8 11 13 23 22 27 22 22 28 36
40 38 39 46 44 34 30 27 45 21 15 9 7 11 20 18 9 8 19 21 32 31 41 32 25 37 36 19 31 49 16 26 13 18 18 21 14 9 16 22 27 36 41 45
33 35 39 26 4 7 5 4 6 26 15 7 8 9 6 12 7 6 4 13 12 23 21 26 24 25 26 22 32 32 21 23 7 11 10 20 16 23 27 34 38 42 45 48
27 19 8 12 4 5 9 5 11 22 12 13 9 26 23 28 15 5 11 10 9 8 21 30 30 29 46 52 40 26 13 10 5 20 18 23 30 30 31 36 39 40 41 43
6 5 5 6 11 6 9 11 13 15 8 14 13 21 16 17 15 13 9 4 6 9 18 21 21 25 35 52 51 18 18 11 9 15 22 4 42 41 29 32 34 33 35 37
10 20 19 13 7 11 9 7 7 10 6 11 6 11 17 13 16 12 9 7 6 11 16 9 29 19 51 54 56 41 23 14 9 13 25 34 22 37 40 29 21 29 24 30
9 4 5 8 7 8 9 7 6 3 4 6 8 11 10 11 12 6 6 8 11 18 8 8 4 22 4 52 59 51 40 24 13 27 26 38 21 14 18 19 15 14 24 24
7 9 7 10 11 10 7 5 4 6 11 25 27 15 9 13 11 5 9 11 6 6 8 10 10 21 20 12 13 24 48 27 22 31 25 31 34 28 30 29 26 24 27 28
9 8 8 8 4 7 8 9 14 8 14 23 21 15 9 5 6 6 7 8 8 8 7 6 22 20 15 17 27 37 54 30 37 47 52 54 39 36 38 33 31 29 27 27
8 12 11 15 18 5 16 14 12 9 17 20 9 6 5 4 6 7 8 4 6 6 7 16 23 17 12 17 31 37 48 60 41 37 43 45 45 39 39 36 32 30 29 29
9 11 16 18 18 18 17 16 18 11 12 4 6 7 4 7 7 4 5 2 8 23 27 10 17 23 23 31 38 42 47 53 57 46 40 42 38 33 32 33 28 26 26 25
Wind_Direction_500mb
349 351 351 353 350 350 360 292 275 150 147 216 220 242 248 275 287 273 242 275 301 301 320 269 257 252 219 212 217 206 229 219 192 189 195 218 189 208 198 216 182 208 312 272
348 353 355 356 357 352 348 303 298 206 202 260 249 226 257 268 258 263 253 244 251 264 264 279 257 266 252 223 208 215 211 238 222 190 220 201 202 209 202 241 135 180 222 265
347 353 357 357 0 354 348 300 282 162 210 265 278 300 297 272 240 259 270 270 265 260 257 256 274 263 267 287 259 342 217 228 233 220 242 193 203 213 203 220 236 195 229 257
346 349 356 360 2 9 359 314 11 357 298 285 333 305 294 297 283 207 279 251 246 253 247 245 245 248 269 248 251 266 243 229 238 230 182 259 218 201 222 206 228 243 220 204
343 346 353 0 4 16 354 340 345 331 289 268 268 264 261 267 281 271 268 228 283 241 246 260 251 270 236 246 200 222 232 232 245 243 215 165 275 269 203 209 213 224 245 215
340 344 347 357 5 18 3 348 320 298 287 268 279 285 331 322 337 288 261 302 315 257 307 338 319 310 308 312 314 251 229 231 231 231 246 208 195 216 218 213 216 221 212 230
337 339 342 350 360 10 5 337 329 301 298 321 313 326 311 285 275 281 294 292 275 276 317 312 285 264 256 256 257 259 262 237 230 235 248 252 246 245 240 245 228 237 234 217
331 333 336 341 348 355 7 335 332 318 300 319 287 303 320 304 280 254 263 260 265 277 276 277 259 248 239 227 235 236 237 272 222 229 222 241 237 249 237 233 230 233 244 246
328 329 329 332 335 341 355 313 302 302 305 101 331 304 288 277 282 279 264 257 259 269 262 254 253 244 220 215 215 217 223 232 273 231 237 261 237 209 245 237 261 238 234 237
323 325 325 326 328 328 330 297 264 282 282 284 323 310 305 306 307 296 300 290 280 227 243 245 240 244 252 219 210 197 213 206 226 240 241 236 262 347 227 226 243 236 224 223
313 318 320 321 319 319 317 301 282 254 259 291 286 279 301 286 257 259 291 314 213 253 244 243 238 251 247 244 221 202 203 208 209 228 241 247 101 179 231 62 50 13 9 317
308 313 315 317 313 314 302 298 293 283 243 265 287 284 273 259 250 271 271 278 311 322 297 266 269 249 254 254 244 226 198 218 216 223 220 237 305 84 72 60 93 319 11 18
302 305 310 312 306 304 293 290 295 285 281 294 281 289 290 253 246 226 246 251 264 276 283 311 301 285 319 272 242 242 216 216 231 224 201 153 184 131 124 18 1 12 329 299
301 302 306 311 307 302 297 287 291 266 267 284 291 295 291 275 243 229 225 236 266 286 278 272 279 283 257 282 305 303 302 222 212 250 243 191 160 228 228 218 263 273 280 211
299 299 300 304 305 302 298 297 280 257 228 284 296 308 312 252 235 232 227 228 233 250 272 253 249 258 280 277 273 270 258 269 210 233 224 231 251 255 282 290 275 250 201 178
303 303 301 301 305 307 308 314 268 239 228 256 285 300 288 251 234 228 217 224 226 231 244 252 261 260 293 261 247 247 261 253 288 348 98 28 344 309 289 273 259 229 197 172
305 306 299 299 300 292 252 281 223 248 190 249 283 273 213 194 270 224 219 216 223 227 235 242 263 262 215 261 265 262 262 273 252 302 306 274 267 267 253 246 217 182 169 163
303 300 301 303 302 285 263 264 246 237 196 242 269 273 242 198 164 204 196 216 213 222 239 238 235 235 249 252 245 257 269 290 274 250 253 261 253 214 206 168 164 158 154 153
306 303 303 303 238 216 243 301 206 204 214 268 245 276 355 311 136 185 253 228 209 237 219 234 242 227 222 220 246 241 238 258 270 242 245 232 158 164 156 151 151 147 146 149
313 319 258 209 192 181 286 242 176 194 229 234 255 264 272 291 296 229 188 202 244 241 230 229 223 240 223 231 224 215 214 223 244 203 170 183 148 148 138 146 141 143 143 145
335 278 310 355 313 277 221 218 198 183 228 214 244 255 270 291 270 246 259 213 283 258 232 218 228 219 226 220 228 198 184 219 185 93 142 297 169 147 118 102 123 132 141 149
262 275 275 273 218 222 243 238 176 199 258 180 244 279 248 248 238 233 216 251 264 255 324 243 237 232 204 211 220 225 217 202 187 217 176 114 54 108 102 99 112 119 131 146
290 294 232 211 202 232 234 238 140 283 226 208 289 282 214 245 230 252 206 242 234 301 243 226 207 25 214 204 204 210 204 209 207 173 139 126 194 126 108 70 70 112 133 151
232 227 221 227 193 223 59 334 302 293 262 295 299 270 217 209 185 228 238 211 189 249 242 234 56 353 325 321 230 197 194 176 162 139 149 171 143 161 133 162 162 163 155 157
252 219 244 245 125 180 195 249 264 308 291 319 302 280 221 183 232 234 275 224 222 229 231 321 322 310 269 254 210 209 184 173 164 154 147 137 134 126 126 134 135 133 131 138
247 239 237 260 261 223 240 265 303 345 326 326 273 280 287 232 286 240 247 300 272 311 326 289 283 264 224 211 176 172 166 168 158 143 134 125 129 134 129 125 121 125 133 136
232 239 239 258 282 285 292 287 310 316 315 357 295 297 348 306 258 254 283 222 289 316 305 330 131 131 127 115 123 129 133 131 131 136 129 123 123 124 116 114 120 128 130 136
Wind_Speed_850mb
57 58 60 64 73 68 40 13 9 3 15 19 27 25 33 21 28 27 26 21 27 17 15 24 31 26 48 51 54 62 58 37 29 43 36 40 45 36 40 21 32 5 16 21
56 57 58 59 62 66 57 20 15 6 13 13 16 23 29 22 29 35 34 34 29 26 18 12 23 24 26 54 49 55 49 44 25 41 62 50 47 44 38 40 14 20 9 14
54 55 55 55 54 49 35 18 8 16 22 35 22 24 23 29 25 24 36 29 32 31 29 26 15 21 21 12 29 19 44 48 45 25 42 34 46 38 43 40 28 18 22 28
50 52 53 53 54 36 25 11 12 10 13 11 14 24 29 31 24 13 14 19 32 35 32 34 32 30 28 18 30 28 36 47 51 45 29 34 42 47 53 40 41 38 31 23
45 48 51 53 54 38 13 21 14 27 41 38 27 23 26 29 29 6 33 24 29 14 28 28 29 21 31 26 38 37 39 41 47 46 33 47 42 45 49 53 49 48 41 19
42 44 47 48 48 42 18 26 16 19 28 25 17 14 19 17 22 28 36 22 15 17 16 28 42 39 42 32 24 20 44 35 40 39 56 44 60 62 47 41 47 51 39 41
39 40 42 43 42 37 19 22 19 18 19 20 23 30 27 26 27 31 44 30 19 29 32 41 41 49 47 41 35 33 29 35 36 32 35 43 36 46 41 44 40 44 48 39
36 36 37 39 38 34 20 21 15 13 17 31 33 19 22 32 27 29 39 45 44 37 32 22 29 29 37 46 42 35 30 23 27 27 34 37 49 31 38 41 44 45 43 38
37 35 35 34 34 32 22 14 11 13 20 2 33 30 32 22 23 25 36 34 20 27 20 21 31 29 32 37 42 40 37 29 24 23 31 31 34 16 22 22 26 31 38 39
34 32 32 33 31 32 26 16 15 10 20 30 31 31 35 35 26 20 23 21 22 29 21 23 27 31 39 37 46 34 36 31 31 28 23 34 7 17 32 21 5 21 39 38
31 30 31 32 31 28 28 23 25 23 17 66 37 15 25 28 32 22 26 19 25 14 20 23 22 25 31 39 40 49 37 35 25 29 34 32 19 35 31 15 21 23 35 11
34 35 31 32 31 27 29 33 13 27 45 57 76 77 73 73 66 48 35 38 23 13 11 9 12 22 26 31 26 35 39 35 29 29 32 30 7 17 16 11 9 8 11 5
33 35 33 36 31 26 29 39 39 35 36 53 41 46 36 38 39 64 49 37 34 35 24 14 10 10 13 17 27 29 26 30 26 39 19 8 15 11 4 4 9 7 5 4
33 36 34 33 35 35 36 40 42 31 19 10 20 16 31 13 22 30 51 62 34 24 20 23 15 13 10 21 28 23 15 29 21 24 8 10 9 8 6 6 6 6 4 8
34 34 36 36 38 36 42 52 45 41 29 9 35 63 16 20 35 43 36 42 50 41 26 17 18 25 25 21 25 22 23 14 23 23 21 26 24 10 5 11 18 13 11 16
36 37 36 35 36 36 38 15 3 17 35 8 8 21 30 13 11 18 37 38 40 43 37 20 29 46 16 14 22 31 46 27 21 4 9 13 13 17 18 21 23 21 21 28
39 39 38 38 40 37 25 14 5 7 18 8 10 12 5 14 9 11 22 31 33 39 43 37 37 33 33 21 25 30 32 13 8 22 8 11 13 23 22 27 22 22 28 36
40 38 39 46 44 34 30 27 45 21 15 9 7 11 20 18 9 8 19 21 32 31 41 32 25 37 36 19 31 49 16 26 13 18 18 21 14 9 16 22 27 36 41 45
33 35 39 26 4 7 5 4 6 26 15 7 8 9 6 12 7 6 4 13 12 23 21 26 24 25 26 22 32 32 21 23 7 11 10 20 16 23 27 34 38 42 45 48
27 19 8 12 4 5 9 5 11 22 12 13 9 26 23 28 15 5 11 10 9 8 21 30 30 29 46 52 40 26 13 10 5 20 18 23 30 30 31 36 39 40 41 43
6 5 5 6 11 6 9 11 13 15 8 14 13 21 16 17 15 13 9 4 6 9 18 21 21 25 35 52 51 18 18 11 9 15 22 4 42 41 29 32 34 33 35 37
10 20 19 13 7 11 9 7 7 10 6 11 6 11 17 13 16 12 9 7 6 11 16 9 29 19 51 54 56 41 23 14 9 13 25 34 22 37 40 29 21 29 24 30
9 4 5 8 7 8 9 7 6 3 4 6 8 11 10 11 12 6 6 8 11 18 8 8 4 22 4 52 59 51 40 24 13 27 26 38 21 14 18 19 15 14 24 24
7 9 7 10 11 10 7 5 4 6 11 25 27 15 9 13 11 5 9 11 6 6 8 10 10 21 20 12 13 24 48 27 22 31 25 31 34 28 30 29 26 24 27 28
9 8 8 8 4 7 8 9 14 8 14 23 21 15 9 5 6 6 7 8 8 8 7 6 22 20 15 17 27 37 54 30 37 47 52 54 39 36 38 33 31 29 27 27
8 12 11 15 18 5 16 14 12 9 17 20 9 6 5 4 6 7 8 4 6 6 7 16 23 17 12 17 31 37 48 60 41 37 43 45 45 39 39 36 32 30 29 29
9 11 16 18 18 18 17 16 18 11 12 4 6 7 4 7 7 4 5 2 8 23 27 10 17 23 23 31 38 42 47 53 57 46 40 42 38 33 32 33 28 26 26 25
Wind_Direction_850mb
349 351 351 353 350 350 360 292 275 150 147 216 220 242 248 275 287 273 242 275 301 301 320 269 257 252 219 212 217 206 229 219 192 189 195 218 189 208 198 216 182 208 312 272
348 353 355 356 357 352 348 303 298 206 202 260 249 226 257 268 258 263 253 244 251 264 264 279 257 266 252 223 208 215 211 238 222 190 220 201 202 209 202 241 135 180 222 265
347 353 357 357 0 354 348 300 282 162 210 265 278 300 297 272 240 259 270 270 265 260 257 256 274 263 267 287 259 342 217 228 233 220 242 193 203 213 203 220 236 195 229 257
346 349 356 360 2 9 359 314 11 357 298 285 333 305 294 297 283 207 279 251 246 253 247 245 245 248 269 248 251 266 243 229 238 230 182 259 218 201 222 206 228 243 220 204
343 346 353 0 4 16 354 340 345 331 289 268 268 264 261 267 281 271 268 228 283 241 246 260 251 270 236 246 200 222 232 232 245 243 215 165 275 269 203 209 213 224 245 215
340 344 347 357 5 18 3 348 320 298 287 268 279 285 331 322 337 288 261 302 315 257 307 338 319 310 308 312 314 251 229 231 231 231 246 208 195 216 218 213 216 221 212 230
337 339 342 350 360 10 5 337 329 301 298 321 313 326 311 285 275 281 294 292 275 276 317 312 285 264 256 256 257 259 262 237 230 235 248 252 246 245 240 245 228 237 234 217
331 333 336 341 348 355 7 335 332 318 300 319 287 303 320 304 280 254 263 260 265 277 276 277 259 248 239 227 235 236 237 272 222 229 222 241 237 249 237 233 230 233 244 246
328 329 329 332 335 341 355 313 302 302 305 101 331 304 288 277 282 279 264 257 259 269 262 254 253 244 220 215 215 217 223 232 273 231 237 261 237 209 245 237 261 238 234 237
323 325 325 326 328 328 330 297 264 282 282 284 323 310 305 306 307 296 300 290 280 227 243 245 240 244 252 219 210 197 213 206 226 240 241 236 262 347 227 226 243 236 224 223
313 318 320 321 319 319 317 301 282 254 259 291 286 279 301 286 257 259 291 314 213 253 244 243 238 251 247 244 221 202 203 208 209 228 241 247 101 179 231 62 50 13 9 317
308 313 315 317 313 314 302 298 293 283 243 265 287 284 273 259 250 271 271 278 311 322 297 266 269 249 254 254 244 226 198 218 216 223 220 237 305 84 72 60 93 319 11 18
302 305 310 312 306 304 293 290 295 285 281 294 281 289 290 253 246 226 246 251 264 276 283 311 301 285 319 272 242 242 216 216 231 224 201 153 184 131 124 18 1 12 329 299
301 302 306 311 307 302 297 287 291 266 267 284 291 295 291 275 243 229 225 236 266 286 278 272 279 283 257 282 305 303 302 222 212 250 243 191 160 228 228 218 263 273 280 211
299 299 300 304 305 302 298 297 280 257 228 284 296 308 312 252 235 232 227 228 233 250 272 253 249 258 280 277 273 270 258 269 210 233 224 231 251 255 282 290 275 250 201 178
303 303 301 301 305 307 308 314 268 239 228 256 285 300 288 251 234 228 217 224 226 231 244 252 261 260 293 261 247 247 261 253 288 348 98 28 344 309 289 273 259 229 197 172
305 306 299 299 300 292 252 281 223 248 190 249 283 273 213 194 270 224 219 216 223 227 235 242 263 262 215 261 265 262 262 273 252 302 306 274 267 267 253 246 217 182 169 163
303 300 301 303 302 285 263 264 246 237 196 242 269 273 242 198 164 204 196 216 213 222 239 238 235 235 249 252 245 257 269 290 274 250 253 261 253 214 206 168 164 158 154 153
306 303 303 303 238 216 243 301 206 204 214 268 245 276 355 311 136 185 253 228 209 237 219 234 242 227 222 220 246 241 238 258 270 242 245 232 158 164 156 151 151 147 146 149
313 319 258 209 192 181 286 242 176 194 229 234 255 264 272 291 296 229 188 202 244 241 230 229 223 240 223 231 224 215 214 223 244 203 170 183 148 148 138 146 141 143 143 145
335 278 310 355 313 277 221 218 198 183 228 214 244 255 270 291 270 246 259 213 283 258 232 218 228 219 226 220 228 198 184 219 185 93 142 297 169 147 118 102 123 132 141 149
262 275 275 273 218 222 243 238 176 199 258 180 244 279 248 248 238 233 216 251 264 255 324 243 237 232 204 211 220 225 217 202 187 217 176 114 54 108 102 99 112 119 131 146
290 294 232 211 202 232 234 238 140 283 226 208 289 282 214 245 230 252 206 242 234 301 243 226 207 25 214 204 204 210 204 209 207 173 139 126 194 126 108 70 70 112 133 151
232 227 221 227 193 223 59 334 302 293 262 295 299 270 217 209 185 228 238 211 189 249 242 234 56 353 325 321 230 197 194 176 162 139 149 171 143 161 133 162 162 163 155 157
252 219 244 245 125 180 195 249 264 308 291 319 302 280 221 183 232 234 275 224 222 229 231 321 322 310 269 254 210 209 184 173 164 154 147 137 134 126 126 134 135 133 131 138
247 239 237 260 261 223 240 265 303 345 326 326 273 280 287 232 286 240 247 300 272 311 326 289 283 264 224 211 176 172 166 168 158 143 134 125 129 134 129 125 121 125 133 136
232 239 239 258 282 285 292 287 310 316 315 357 295 297 348 306 258 254 283 222 289 316 305 330 131 131 127 115 123 129 133 131 131 136 129 123 123 124 116 114 120 128 130 136